Location: Podia
(1.5569°N, 32.3469°E)
Time: 17:45:40
(UTC+00:00)

Cosmos 1703 Rocket - Pass Details

Date: 01 June 2020
Orbit: 606 x 632 km, 82.5° (Epoch: 05 July)

Event Time Altitude Azimuth Distance (km) Brightness Sun altitude
Rises 16:39:19 0° 169° (S) 2,872 6.7 -11.1°
Reaches altitude 10° 16:41:40 10° 161° (SSE) 1,962 5.7 -11.7°
Maximum altitude 16:45:40 36° 94° (E) 960 4.1 -12.6°
Drops below altitude 10° 16:49:38 10° 27° (NNE) 1,947 6.1 -13.5°
Sets 16:51:57 0° 18° (NNE) 2,847 7.0 -14.0°
